,,PA_Meas_PMT16A,,PR_Meas_QMR101_102,,RH_Meas_QMH101,,SR_Meas_QMS101,,TA_Meas_QMH101,,GenWind,,GenWind,
time,status,PA,status,PR,status,RH,status,SR,status,TA,status,DirAvg,status,SpdAvg,
2010-05-08, 00:00:05,VALID,914.364,VALID,0,VALID,92.3882,VALID,0,VALID,21.9054,VALID,94,VALID,2.70586,
2010-05-08, 00:01:05,VALID,914.414,VALID,0,VALID,92.0451,VALID,0,VALID,21.964,VALID,95,VALID,2.49805,
2010-05-08, 00:02:05,VALID,914.415,VALID,0,VALID,91.9613,VALID,0,VALID,21.964,VALID,90,VALID,2.05273,
2010-05-08, 00:03:05,VALID,914.394,VALID,0,VALID,92.0985,VALID,0,VALID,21.9835,VALID,112,VALID,1.71563,
2010-05-08, 00:04:05,VALID,914.388,VALID,0,VALID,92.2357,VALID,0,VALID,21.964,VALID,106,VALID,1.4043,
2010-05-08, 00:05:05,VALID,914.402,VALID,0,VALID,92.3729,VALID,0,VALID,21.9444,VALID,98,VALID,1.26563,
2010-05-08, 00:06:05,VALID,914.417,VALID,0,VALID,92.5559,VALID,0,VALID,21.9054,VALID,125,VALID,1.81406,
2010-05-08, 00:07:05,VALID,914.431,VALID,0,VALID,92.7007,VALID,0,VALID,21.8664,VALID,94,VALID,1.98711,
2010-05-08, 00:08:05,VALID,914.448,VALID,0,VALID,92.838,VALID,0,VALID,21.8257,VALID,98,VALID,1.29922,
2010-05-08, 00:09:05,VALID,914.43,VALID,0,VALID,92.8989,VALID,0,VALID,21.8469,VALID,117,VALID,1.33672,
2010-05-08, 00:10:05,VALID,914.413,VALID,0,VALID,92.8913,VALID,0,VALID,21.8469,VALID,130,VALID,2.13359,
2010-05-08, 00:11:05,VALID,914.399,VALID,0,VALID,93.0362,VALID,0,VALID,21.8257,VALID,127,VALID,1.43086,
2010-05-08, 00:12:05,VALID,914.394,VALID,0,VALID,93.0209,VALID,0,VALID,21.8274,VALID,139,VALID,1.50937,
2010-05-08, 00:13:05,VALID,914.343,VALID,0,VALID,92.9676,VALID,0,VALID,21.8274,VALID,112,VALID,2.02266,
2010-05-08, 00:14:05,VALID,914.353,VALID,0,VALID,93.0743,VALID,0,VALID,21.8274,VALID,128,VALID,1.50234,
2010-05-08, 00:15:05,VALID,914.355,VALID,0,VALID,93.0133,VALID,0,VALID,21.8079,VALID,115,VALID,1.88242,
2010-05-08, 00:16:05,VALID,914.341,VALID,0,VALID,93.181,VALID,0,VALID,21.7867,VALID,122,VALID,1.37656,
2010-05-08, 00:17:05,VALID,914.372,VALID,0,VALID,93.3487,VALID,0,VALID,21.7688,VALID,120,VALID,1.73945,
2010-05-08, 00:18:05,VALID,914.366,VALID,0,VALID,93.4326,VALID,0,VALID,21.7298,VALID,113,VALID,2.14297,
2010-05-08, 00:19:05,VALID,914.338,VALID,0,VALID,93.6384,VALID,0,VALID,21.7298,VALID,112,VALID,1.44258,
2010-05-08, 00:20:05,VALID,914.312,VALID,0,VALID,93.8214,VALID,0,VALID,21.6908,VALID,110,VALID,0.948828,
2010-05-08, 00:21:05,VALID,914.334,VALID,0,VALID,93.9434,VALID,0,VALID,21.6713,VALID,105,VALID,1.51563,
2010-05-08, 00:22:05,VALID,914.313,VALID,0,VALID,94.0501,VALID,0,VALID,21.6323,VALID,98,VALID,1.5625,
2010-05-08, 00:23:05,VALID,914.315,VALID,0,VALID,94.1492,VALID,0,VALID,21.6128,VALID,89,VALID,1.39453,
2010-05-08, 00:24:05,VALID,914.271,VALID,0,VALID,94.2483,VALID,0,VALID,21.5721,VALID,87,VALID,1.20742,
2010-05-08, 00:25:05,VALID,914.229,VALID,0,VALID,94.3017,VALID,0,VALID,21.5737,VALID,87,VALID,1.68164,
2010-05-08, 00:26:05,VALID,914.207,VALID,0,VALID,94.2788,VALID,0,VALID,21.5737,VALID,87,VALID,1.23203,
2010-05-08, 00:27:05,VALID,914.198,VALID,0,VALID,94.2254,VALID,0.107441,VALID,21.5932,VALID,66,VALID,0.912109,
2010-05-08, 00:28:05,VALID,914.207,VALID,0,VALID,94.233,VALID,0.107441,VALID,21.5737,VALID,66,VALID,1.39141,
2010-05-08, 00:29:05,VALID,914.14,VALID,0,VALID,94.3169,VALID,0.107441,VALID,21.5542,VALID,66,VALID,1.23789,
2010-05-08, 00:30:05,VALID,914.16,VALID,0,VALID,94.3245,VALID,0,VALID,21.5542,VALID,90,VALID,1.53125,
2010-05-08, 00:31:05,VALID,914.144,VALID,0,VALID,94.3017,VALID,0,VALID,21.5542,VALID,100,VALID,1.81055,
2010-05-08, 00:32:05,VALID,914.127,VALID,0,VALID,94.2864,VALID,0.107441,VALID,21.5347,VALID,89,VALID,1.43828,
2010-05-08, 00:33:05,VALID,914.123,VALID,0,VALID,94.2864,VALID,0,VALID,21.5559,VALID,104,VALID,1.52617,
2010-05-08, 00:34:05,VALID,914.104,VALID,0,VALID,94.3017,VALID,0,VALID,21.5347,VALID,104,VALID,1.31289,
2010-05-08, 00:35:05,VALID,914.123,VALID,0,VALID,94.3017,VALID,0,VALID,21.5542,VALID,82,VALID,1.04805,
2010-05-08, 00:36:05,VALID,914.078,VALID,0,VALID,94.3017,VALID,0,VALID,21.5542,VALID,82,VALID,1.22891,
2010-05-08, 00:37:05,VALID,914.088,VALID,0,VALID,94.3626,VALID,0,VALID,21.5347,VALID,82,VALID,1.12305,
2010-05-08, 00:38:05,VALID,914.093,VALID,0,VALID,94.4084,VALID,0,VALID,21.5347,VALID,82,VALID,1.01875,
2010-05-08, 00:39:05,VALID,914.097,VALID,0,VALID,94.3855,VALID,0,VALID,21.5152,VALID,82,VALID,1.27852,
2010-05-08, 00:40:05,VALID,914.049,VALID,0,VALID,94.3474,VALID,0,VALID,21.5347,VALID,108,VALID,1.30898,
2010-05-08, 00:41:05,VALID,914.055,VALID,0,VALID,94.3093,VALID,0,VALID,21.5347,VALID,129,VALID,1.18242,
2010-05-08, 00:42:05,VALID,914.068,VALID,0,VALID,94.2407,VALID,0,VALID,21.5542,VALID,129,VALID,1.53984,
2010-05-08, 00:43:05,VALID,914.05,VALID,0,VALID,94.1797,VALID,0,VALID,21.5754,VALID,129,VALID,0.752734,
2010-05-08, 00:44:05,VALID,914.005,VALID,0,VALID,94.1492,VALID,0,VALID,21.5737,VALID,129,VALID,1.36172,
2010-05-08, 00:45:05,VALID,914.005,VALID,0,VALID,94.2178,VALID,0,VALID,21.5542,VALID,129,VALID,1.19258,
2010-05-08, 00:46:05,VALID,914.012,VALID,0,VALID,94.3169,VALID,0,VALID,21.5559,VALID,120,VALID,1.47344,
2010-05-08, 00:47:05,VALID,913.985,VALID,0,VALID,94.3093,VALID,0,VALID,21.5331,VALID,111,VALID,1.42031,
2010-05-08, 00:48:05,VALID,913.991,VALID,0,VALID,94.294,VALID,0,VALID,21.5542,VALID,100,VALID,1.11719,
2010-05-08, 00:49:05,VALID,913.982,VALID,0,VALID,94.3321,VALID,0,VALID,21.5347,VALID,100,VALID,1.45273,
2010-05-08, 00:50:05,VALID,913.964,VALID,0,VALID,94.355,VALID,0,VALID,21.5363,VALID,100,VALID,1.15937,
2010-05-08, 00:51:05,VALID,913.947,VALID,0,VALID,94.4465,VALID,0,VALID,21.4957,VALID,65,VALID,1.23438,
2010-05-08, 00:52:05,VALID,913.943,VALID,0,VALID,94.4922,VALID,0,VALID,21.4973,VALID,88,VALID,1.22461,
2010-05-08, 00:53:05,VALID,913.913,VALID,0,VALID,94.5837,VALID,0,VALID,21.4762,VALID,104,VALID,0.895312,
2010-05-08, 00:54:05,VALID,913.912,VALID,0,VALID,94.6066,VALID,0,VALID,21.4567,VALID,104,VALID,0.9875,
2010-05-08, 00:55:05,VALID,913.863,VALID,0,VALID,94.6371,VALID,0,VALID,21.4372,VALID,104,VALID,1.15156,
2010-05-08, 00:56:05,VALID,913.879,VALID,0,VALID,94.6676,VALID,0,VALID,21.4177,VALID,104,VALID,1.07031,
2010-05-08, 00:57:05,VALID,913.868,VALID,0,VALID,94.7362,VALID,0,VALID,21.3981,VALID,104,VALID,1.29414,
2010-05-08, 00:58:05,VALID,913.847,VALID,0,VALID,94.7591,VALID,0,VALID,21.4177,VALID,104,VALID,1.00625,
2010-05-08, 00:59:05,VALID,913.811,VALID,0,VALID,94.7743,VALID,0,VALID,21.4177,VALID,105,VALID,1.63281,
2010-05-08, 01:00:05,VALID,913.793,VALID,0,VALID,94.7667,VALID,0,VALID,21.4583,VALID,121,VALID,1.51563,
2010-05-08, 01:01:05,VALID,913.772,VALID,0,VALID,94.6905,VALID,0,VALID,21.4762,VALID,115,VALID,1.19141,
2010-05-08, 01:02:05,VALID,913.762,VALID,0,VALID,94.6295,VALID,0,VALID,21.4957,VALID,115,VALID,1.22461,
2010-05-08, 01:03:05,VALID,913.714,VALID,0,VALID,94.538,VALID,0,VALID,21.5152,VALID,115,VALID,1.04883,
2010-05-08, 01:04:05,VALID,913.703,VALID,0,VALID,94.5151,VALID,0,VALID,21.5152,VALID,115,VALID,0.904297,
2010-05-08, 01:05:05,VALID,913.659,VALID,0,VALID,94.416,VALID,0,VALID,21.5542,VALID,142,VALID,1.32187,
2010-05-08, 01:06:05,VALID,913.668,VALID,0,VALID,94.2635,VALID,0,VALID,21.5542,VALID,144,VALID,1.13867,
2010-05-08, 01:07:05,VALID,913.644,VALID,0,VALID,94.2407,VALID,0,VALID,21.5542,VALID,141,VALID,1.35,
2010-05-08, 01:08:05,VALID,913.633,VALID,0,VALID,94.294,VALID,0,VALID,21.5152,VALID,124,VALID,1.275,
2010-05-08, 01:09:05,VALID,913.622,VALID,0,VALID,94.4236,VALID,0.107441,VALID,21.4957,VALID,133,VALID,0.884375,
2010-05-08, 01:10:05,VALID,913.63,VALID,0,VALID,94.6066,VALID,0,VALID,21.4177,VALID,133,VALID,1.09063,
2010-05-08, 01:11:05,VALID,913.581,VALID,0,VALID,94.7743,VALID,0,VALID,21.3786,VALID,153,VALID,0.441797,
2010-05-08, 01:12:05,VALID,913.596,VALID,0,VALID,94.8734,VALID,0,VALID,21.3803,VALID,141,VALID,0.63125,
2010-05-08, 01:13:05,VALID,913.551,VALID,0,VALID,94.942,VALID,0,VALID,21.3396,VALID,171,VALID,0.802734,
2010-05-08, 01:14:05,VALID,913.523,VALID,0,VALID,95.0106,VALID,0,VALID,21.3412,VALID,171,VALID,0.946094,
2010-05-08, 01:15:05,VALID,913.545,VALID,0,VALID,95.0792,VALID,0,VALID,21.3201,VALID,171,VALID,0.975,
2010-05-08, 01:16:05,VALID,913.524,VALID,0,VALID,95.1174,VALID,0,VALID,21.3006,VALID,171,VALID,1.16953,
2010-05-08, 01:17:05,VALID,913.491,VALID,0,VALID,95.064,VALID,0,VALID,21.3217,VALID,171,VALID,1.35898,
2010-05-08, 01:18:05,VALID,913.497,VALID,0,VALID,95.0564,VALID,0,VALID,21.3201,VALID,171,VALID,0.902344,
2010-05-08, 01:19:05,VALID,913.482,VALID,0,VALID,95.0183,VALID,0,VALID,21.3412,VALID,167,VALID,1.2375,
2010-05-08, 01:20:05,VALID,913.448,VALID,0,VALID,95.0183,VALID,0,VALID,21.3608,VALID,169,VALID,0.704687,
2010-05-08, 01:21:05,VALID,913.426,VALID,0,VALID,94.9649,VALID,0,VALID,21.3396,VALID,172,VALID,1.06758,
2010-05-08, 01:22:05,VALID,913.382,VALID,0,VALID,94.8429,VALID,0,VALID,21.3591,VALID,180,VALID,1.30078,
2010-05-08, 01:23:05,VALID,913.339,VALID,0,VALID,94.7362,VALID,0,VALID,21.4177,VALID,180,VALID,1.1875,
2010-05-08, 01:24:05,VALID,913.336,VALID,0,VALID,94.6295,VALID,0,VALID,21.4193,VALID,180,VALID,1.13555,
2010-05-08, 01:25:05,VALID,913.322,VALID,0,VALID,94.6066,VALID,0,VALID,21.4193,VALID,180,VALID,0.716016,
2010-05-08, 01:26:05,VALID,913.273,VALID,0,VALID,94.6218,VALID,0,VALID,21.3981,VALID,180,VALID,0.728125,
2010-05-08, 01:27:05,VALID,913.283,VALID,0,VALID,94.599,VALID,0,VALID,21.3998,VALID,180,VALID,0.904688,
2010-05-08, 01:28:05,VALID,913.283,VALID,0,VALID,94.6142,VALID,0,VALID,21.3981,VALID,180,VALID,0.466797,
2010-05-08, 01:29:05,VALID,913.267,VALID,0,VALID,94.5685,VALID,0,VALID,21.3998,VALID,180,VALID,0.480469,
2010-05-08, 01:30:04,VALID,913.245,VALID,0,VALID,94.4617,VALID,0,VALID,21.3981,VALID,180,VALID,0.442578,
2010-05-08, 01:31:04,VALID,913.248,VALID,0,VALID,94.4617,VALID,0,VALID,21.3591,VALID,180,VALID,0.675,
2010-05-08, 01:32:04,VALID,913.197,VALID,0,VALID,94.4999,VALID,0,VALID,21.3608,VALID,180,VALID,0.901172,
2010-05-08, 01:33:04,VALID,913.162,VALID,0,VALID,94.599,VALID,0,VALID,21.3396,VALID,180,VALID,0.886719,
2010-05-08, 01:34:04,VALID,913.154,VALID,0,VALID,94.6828,VALID,0,VALID,21.3006,VALID,179,VALID,0.848047,
2010-05-08, 01:35:04,VALID,913.118,VALID,0,VALID,94.7514,VALID,0.107441,VALID,21.3022,VALID,179,VALID,0.873438,
2010-05-08, 01:36:04,VALID,913.103,VALID,0,VALID,94.8048,VALID,0,VALID,21.2616,VALID,179,VALID,0.997656,
2010-05-08, 01:37:04,VALID,913.068,VALID,0,VALID,94.8048,VALID,0,VALID,21.2827,VALID,179,VALID,0.961328,
2010-05-08, 01:38:04,VALID,913.065,VALID,0,VALID,94.8429,VALID,0,VALID,21.2421,VALID,179,VALID,0.983203,
2010-05-08, 01:39:04,VALID,913.073,VALID,0,VALID,94.9801,VALID,0,VALID,21.2421,VALID,179,VALID,0.891406,
2010-05-08, 01:40:04,VALID,913.057,VALID,0,VALID,95.0792,VALID,0,VALID,21.2226,VALID,178,VALID,1.16211,
2010-05-08, 01:41:04,VALID,913.038,VALID,0,VALID,95.0869,VALID,0,VALID,21.2226,VALID,178,VALID,1.00391,
2010-05-08, 01:42:04,VALID,913.001,VALID,0,VALID,95.0869,VALID,0,VALID,21.2226,VALID,177,VALID,0.937891,
2010-05-08, 01:43:04,VALID,912.96,VALID,0,VALID,95.1174,VALID,0,VALID,21.2437,VALID,176,VALID,1.05898,
2010-05-08, 01:44:04,VALID,912.981,VALID,0,VALID,95.0945,VALID,0,VALID,21.2827,VALID,176,VALID,1.02852,
2010-05-08, 01:45:04,VALID,912.976,VALID,0,VALID,94.9496,VALID,0,VALID,21.3022,VALID,176,VALID,0.997656,
2010-05-08, 01:46:04,VALID,912.957,VALID,0,VALID,94.8658,VALID,0,VALID,21.2616,VALID,140,VALID,1.15195,
2010-05-08, 01:47:04,VALID,912.899,VALID,0,VALID,94.8048,VALID,0,VALID,21.2827,VALID,133,VALID,1.29219,
2010-05-08, 01:48:04,VALID,912.906,VALID,0,VALID,94.7209,VALID,0,VALID,21.2811,VALID,133,VALID,1.28047,
2010-05-08, 01:49:04,VALID,912.907,VALID,0,VALID,94.6371,VALID,0,VALID,21.3217,VALID,133,VALID,0.874609,
2010-05-08, 01:50:04,VALID,912.863,VALID,0,VALID,94.6142,VALID,0,VALID,21.2616,VALID,133,VALID,0.948047,
2010-05-08, 01:51:04,VALID,912.839,VALID,0,VALID,94.7057,VALID,0,VALID,21.2616,VALID,133,VALID,0.871094,
2010-05-08, 01:52:04,VALID,912.826,VALID,0,VALID,94.82,VALID,0,VALID,21.2421,VALID,133,VALID,0.461719,
2010-05-08, 01:53:04,VALID,912.83,VALID,0,VALID,94.9573,VALID,0,VALID,21.1836,VALID,133,VALID,0.301953,
2010-05-08, 01:54:04,VALID,912.805,VALID,0,VALID,95.125,VALID,0,VALID,21.1445,VALID,133,VALID,0.683594,
2010-05-08, 01:55:04,VALID,912.764,VALID,0,VALID,95.2698,VALID,0,VALID,21.1055,VALID,133,VALID,0.64375,
2010-05-08, 01:56:04,VALID,912.761,VALID,0,VALID,95.4071,VALID,0,VALID,21.0681,VALID,133,VALID,0.791797,
2010-05-08, 01:57:04,VALID,912.74,VALID,0,VALID,95.5595,VALID,0,VALID,21.0275,VALID,133,VALID,0.639844,
2010-05-08, 01:58:04,VALID,912.746,VALID,0,VALID,95.6586,VALID,0,VALID,21.0096,VALID,133,VALID,0.588672,
2010-05-08, 01:59:04,VALID,912.722,VALID,0,VALID,95.7425,VALID,0,VALID,20.9885,VALID,133,VALID,0.643359,
2010-05-08, 02:00:04,VALID,912.692,VALID,0,VALID,95.8263,VALID,0,VALID,20.9901,VALID,132,VALID,0.548828,
2010-05-08, 02:01:04,VALID,912.722,VALID,0,VALID,95.9026,VALID,0,VALID,20.969,VALID,132,VALID,0.652344,
2010-05-08, 02:02:04,VALID,912.698,VALID,0,VALID,95.9559,VALID,0,VALID,20.969,VALID,133,VALID,0.966406,
2010-05-08, 02:03:04,VALID,912.71,VALID,0,VALID,95.9636,VALID,0,VALID,20.9901,VALID,133,VALID,0.750781,
2010-05-08, 02:04:04,VALID,912.698,VALID,0,VALID,95.9788,VALID,0,VALID,20.9901,VALID,180,VALID,0.814062,
2010-05-08, 02:05:04,VALID,912.694,VALID,0,VALID,95.9788,VALID,0,VALID,21.008,VALID,189,VALID,0.517578,
2010-05-08, 02:06:04,VALID,912.687,VALID,0,VALID,95.9407,VALID,0,VALID,21.008,VALID,188,VALID,0.775,
2010-05-08, 02:07:04,VALID,912.697,VALID,0,VALID,95.8873,VALID,0,VALID,21.0291,VALID,188,VALID,0.689062,
2010-05-08, 02:08:04,VALID,912.694,VALID,0,VALID,95.834,VALID,0,VALID,21.008,VALID,187,VALID,1.09883,
2010-05-08, 02:09:04,VALID,912.651,VALID,0,VALID,95.8187,VALID,0,VALID,21.008,VALID,145,VALID,0.805469,
2010-05-08, 02:10:04,VALID,912.667,VALID,0,VALID,95.7882,VALID,0,VALID,21.0486,VALID,145,VALID,0.826953,
2010-05-08, 02:11:04,VALID,912.64,VALID,0,VALID,95.7501,VALID,0,VALID,21.0275,VALID,146,VALID,0.340234,
2010-05-08, 02:12:04,VALID,912.613,VALID,0,VALID,95.712,VALID,0,VALID,21.047,VALID,146,VALID,0.541016,
2010-05-08, 02:13:04,VALID,912.596,VALID,0,VALID,95.6739,VALID,0,VALID,21.0681,VALID,146,VALID,0.307031,
2010-05-08, 02:14:04,VALID,912.585,VALID,0,VALID,95.651,VALID,0,VALID,21.0665,VALID,182,VALID,1.1207,
2010-05-08, 02:15:04,VALID,912.547,VALID,0,VALID,95.5671,VALID,0,VALID,21.086,VALID,177,VALID,1.0543,
2010-05-08, 02:16:04,VALID,912.577,VALID,0,VALID,95.4833,VALID,0,VALID,21.1266,VALID,170,VALID,0.648438,
2010-05-08, 02:17:04,VALID,912.548,VALID,0,VALID,95.3994,VALID,0,VALID,21.125,VALID,170,VALID,0.573047,
2010-05-08, 02:18:04,VALID,912.535,VALID,0,VALID,95.2546,VALID,0,VALID,21.1445,VALID,170,VALID,0.647656,
2010-05-08, 02:19:04,VALID,912.539,VALID,0,VALID,95.0335,VALID,0,VALID,21.164,VALID,170,VALID,1.01836,
2010-05-08, 02:20:04,VALID,912.519,VALID,0,VALID,94.8124,VALID,0,VALID,21.164,VALID,170,VALID,0.681641,
2010-05-08, 02:21:04,VALID,912.498,VALID,0,VALID,94.6142,VALID,0,VALID,21.2242,VALID,169,VALID,0.728906,
2010-05-08, 02:22:04,VALID,912.481,VALID,0,VALID,94.5151,VALID,0.107441,VALID,21.2226,VALID,169,VALID,0.909766,
2010-05-08, 02:23:04,VALID,912.464,VALID,0,VALID,94.4389,VALID,0,VALID,21.2031,VALID,169,VALID,0.646484,
2010-05-08, 02:24:04,VALID,912.439,VALID,0,VALID,94.4617,VALID,0,VALID,21.2242,VALID,169,VALID,0.275391,
2010-05-08, 02:25:04,VALID,912.437,VALID,0,VALID,94.416,VALID,0,VALID,21.1836,VALID,169,VALID,0.205859,
2010-05-08, 02:26:04,VALID,912.431,VALID,0,VALID,94.4084,VALID,0,VALID,21.2047,VALID,169,VALID,0.460938,
2010-05-08, 02:27:04,VALID,912.445,VALID,0,VALID,94.3855,VALID,0,VALID,21.1852,VALID,169,VALID,0.541406,
2010-05-08, 02:28:04,VALID,912.434,VALID,0,VALID,94.3169,VALID,0,VALID,21.1445,VALID,168,VALID,0.934375,
2010-05-08, 02:29:04,VALID,912.429,VALID,0,VALID,94.3169,VALID,0,VALID,21.164,VALID,168,VALID,0.790625,
2010-05-08, 02:30:04,VALID,912.42,VALID,0,VALID,94.3245,VALID,0,VALID,21.1445,VALID,168,VALID,0.736328,
2010-05-08, 02:31:04,VALID,912.396,VALID,0,VALID,94.4389,VALID,0,VALID,21.1445,VALID,168,VALID,0.142188,
2010-05-08, 02:32:04,VALID,912.411,VALID,0,VALID,94.4846,VALID,0,VALID,21.125,VALID,168,VALID,0.405078,
2010-05-08, 02:33:04,VALID,912.434,VALID,0,VALID,94.5456,VALID,0,VALID,21.1266,VALID,168,VALID,0.508203,
2010-05-08, 02:34:04,VALID,912.422,VALID,0,VALID,94.5532,VALID,0,VALID,21.1266,VALID,168,VALID,1.06875,
2010-05-08, 02:35:04,VALID,912.43,VALID,0,VALID,94.5456,VALID,0,VALID,21.1055,VALID,168,VALID,1.01523,
2010-05-08, 02:36:04,VALID,912.466,VALID,0,VALID,94.5685,VALID,0,VALID,21.1055,VALID,168,VALID,0.798047,
2010-05-08, 02:37:04,VALID,912.454,VALID,0,VALID,94.6066,VALID,0,VALID,21.1071,VALID,168,VALID,0.903516,
2010-05-08, 02:38:04,VALID,912.455,VALID,0,VALID,94.6218,VALID,0,VALID,21.1071,VALID,168,VALID,0.837891,
2010-05-08, 02:39:04,VALID,912.469,VALID,0,VALID,94.5227,VALID,0,VALID,21.0876,VALID,167,VALID,1.07148,
2010-05-08, 02:40:04,VALID,912.46,VALID,0,VALID,94.477,VALID,0,VALID,21.086,VALID,167,VALID,0.547266,
2010-05-08, 02:41:04,VALID,912.427,VALID,0,VALID,94.4541,VALID,0,VALID,21.1055,VALID,167,VALID,0.577344,
2010-05-08, 02:42:04,VALID,912.421,VALID,0,VALID,94.294,VALID,0,VALID,21.125,VALID,152,VALID,1.45664,
2010-05-08, 02:43:04,VALID,912.417,VALID,0,VALID,94.2559,VALID,0,VALID,21.1657,VALID,153,VALID,0.550391,
2010-05-08, 02:44:04,VALID,912.435,VALID,0,VALID,94.1797,VALID,0,VALID,21.1445,VALID,179,VALID,1.22891,
2010-05-08, 02:45:04,VALID,912.418,VALID,0,VALID,93.9891,VALID,0,VALID,21.1657,VALID,157,VALID,1.59648,
2010-05-08, 02:46:04,VALID,912.421,VALID,0,VALID,93.8747,VALID,0,VALID,21.1852,VALID,185,VALID,1.66953,
2010-05-08, 02:47:04,VALID,912.421,VALID,0,VALID,93.7909,VALID,0,VALID,21.2047,VALID,174,VALID,1.21797,
2010-05-08, 02:48:04,VALID,912.442,VALID,0,VALID,93.7451,VALID,0,VALID,21.2031,VALID,115,VALID,0.463281,
2010-05-08, 02:49:04,VALID,912.425,VALID,0,VALID,93.707,VALID,0,VALID,21.2031,VALID,105,VALID,0.749609,
2010-05-08, 02:50:04,VALID,912.443,VALID,0,VALID,93.7299,VALID,0,VALID,21.1836,VALID,92,VALID,0.644141,
2010-05-08, 02:51:04,VALID,912.427,VALID,0,VALID,93.7909,VALID,0,VALID,21.1836,VALID,92,VALID,0.721875,
2010-05-08, 02:52:04,VALID,912.4,VALID,0,VALID,93.7985,VALID,0,VALID,21.164,VALID,92,VALID,0.903125,
2010-05-08, 02:53:04,VALID,912.388,VALID,0,VALID,93.8824,VALID,0.107441,VALID,21.125,VALID,119,VALID,0.856641,
2010-05-08, 02:54:04,VALID,912.344,VALID,0,VALID,94.0501,VALID,0,VALID,21.1071,VALID,119,VALID,0.808984,
2010-05-08, 02:55:04,VALID,912.38,VALID,0,VALID,94.2407,VALID,0.107441,VALID,21.047,VALID,119,VALID,0.878125,
2010-05-08, 02:56:04,VALID,912.363,VALID,0,VALID,94.4389,VALID,0,VALID,21.008,VALID,119,VALID,0.683984,
2010-05-08, 02:57:04,VALID,912.363,VALID,0,VALID,94.6371,VALID,0,VALID,20.9511,VALID,119,VALID,0.5125,
2010-05-08, 02:58:04,VALID,912.414,VALID,0,VALID,94.8277,VALID,0,VALID,20.891,VALID,119,VALID,0.594141,
2010-05-08, 02:59:04,VALID,912.375,VALID,0,VALID,95.0411,VALID,0,VALID,20.8714,VALID,119,VALID,0.644531,
2010-05-08, 03:00:04,VALID,912.401,VALID,0,VALID,95.1555,VALID,0,VALID,20.8535,VALID,119,VALID,0.755469,
2010-05-08, 03:01:04,VALID,912.413,VALID,0,VALID,95.3003,VALID,0,VALID,20.834,VALID,119,VALID,0.5625,
2010-05-08, 03:02:04,VALID,912.404,VALID,0,VALID,95.4147,VALID,0,VALID,20.7739,VALID,119,VALID,0.465625,
2010-05-08, 03:03:04,VALID,912.381,VALID,0,VALID,95.529,VALID,0,VALID,20.7755,VALID,119,VALID,0.171875,
2010-05-08, 03:04:04,VALID,912.398,VALID,0,VALID,95.6053,VALID,0,VALID,20.7755,VALID,119,VALID,0.167969,
2010-05-08, 03:05:04,VALID,912.413,VALID,0,VALID,95.6739,VALID,0,VALID,20.756,VALID,119,VALID,0.225391,
2010-05-08, 03:06:04,VALID,912.369,VALID,0,VALID,95.712,VALID,0,VALID,20.756,VALID,119,VALID,0.345703,
2010-05-08, 03:07:04,VALID,912.348,VALID,0,VALID,95.7806,VALID,0,VALID,20.756,VALID,119,VALID,0.376172,
2010-05-08, 03:08:04,VALID,912.367,VALID,0,VALID,95.8035,VALID,0,VALID,20.7365,VALID,119,VALID,0.273828,
2010-05-08, 03:09:04,VALID,912.314,VALID,0,VALID,95.8492,VALID,0,VALID,20.7349,VALID,119,VALID,0.485156,
2010-05-08, 03:10:04,VALID,912.313,VALID,0,VALID,95.8873,VALID,0,VALID,20.7365,VALID,119,VALID,0.583594,
2010-05-08, 03:11:04,VALID,912.347,VALID,0,VALID,95.9026,VALID,0,VALID,20.7365,VALID,119,VALID,0.457031,
2010-05-08, 03:12:04,VALID,912.31,VALID,0,VALID,95.9178,VALID,0,VALID,20.7365,VALID,119,VALID,0.321875,
2010-05-08, 03:13:04,VALID,912.328,VALID,0,VALID,95.9331,VALID,0,VALID,20.7365,VALID,119,VALID,0.381641,
2010-05-08, 03:14:04,VALID,912.293,VALID,0,VALID,95.895,VALID,0,VALID,20.7365,VALID,120,VALID,0.561328,
2010-05-08, 03:15:04,VALID,912.28,VALID,0,VALID,95.9254,VALID,0,VALID,20.7365,VALID,120,VALID,0.732813,
2010-05-08, 03:16:04,VALID,912.278,VALID,0,VALID,95.9407,VALID,0,VALID,20.7544,VALID,119,VALID,0.885938,
2010-05-08, 03:17:04,VALID,912.286,VALID,0,VALID,95.8797,VALID,0,VALID,20.795,VALID,119,VALID,0.86875,
2010-05-08, 03:18:04,VALID,912.306,VALID,0,VALID,95.8111,VALID,0,VALID,20.8145,VALID,119,VALID,0.836719,
2010-05-08, 03:19:04,VALID,912.302,VALID,0,VALID,95.773,VALID,0,VALID,20.8535,VALID,119,VALID,0.680859,
2010-05-08, 03:20:04,VALID,912.299,VALID,0,VALID,95.7654,VALID,0,VALID,20.873,VALID,119,VALID,0.723828,
2010-05-08, 03:21:04,VALID,912.303,VALID,0,VALID,95.7349,VALID,0,VALID,20.8925,VALID,119,VALID,0.726953,
2010-05-08, 03:22:04,VALID,912.279,VALID,0,VALID,95.6662,VALID,0,VALID,20.8925,VALID,119,VALID,0.702734,
2010-05-08, 03:23:04,VALID,912.304,VALID,0,VALID,95.6205,VALID,0,VALID,20.912,VALID,119,VALID,0.544531,
2010-05-08, 03:24:04,VALID,912.311,VALID,0,VALID,95.5367,VALID,0,VALID,20.912,VALID,119,VALID,0.408594,
2010-05-08, 03:25:04,VALID,912.307,VALID,0,VALID,95.4071,VALID,0,VALID,20.8925,VALID,119,VALID,0.447266,
2010-05-08, 03:26:04,VALID,912.337,VALID,0,VALID,95.2927,VALID,0,VALID,20.8129,VALID,119,VALID,0.94375,
2010-05-08, 03:27:04,VALID,912.316,VALID,0,VALID,95.468,VALID,0,VALID,20.8145,VALID,119,VALID,0.814844,
2010-05-08, 03:28:04,VALID,912.323,VALID,0,VALID,95.6739,VALID,0,VALID,20.834,VALID,119,VALID,0.907031,
2010-05-08, 03:29:04,VALID,912.371,VALID,0,VALID,95.7349,VALID,0,VALID,20.8535,VALID,119,VALID,0.930469,
2010-05-08, 03:30:04,VALID,912.355,VALID,0,VALID,95.7882,VALID,0,VALID,20.873,VALID,119,VALID,0.989453,
2010-05-08, 03:31:04,VALID,912.332,VALID,0,VALID,95.7501,VALID,0,VALID,20.9316,VALID,119,VALID,0.866406,
2010-05-08, 03:32:04,VALID,912.387,VALID,0,VALID,95.7501,VALID,0,VALID,20.9316,VALID,119,VALID,0.853516,
2010-05-08, 03:33:04,VALID,912.38,VALID,0,VALID,95.651,VALID,0,VALID,20.891,VALID,119,VALID,0.610547,
2010-05-08, 03:34:04,VALID,912.427,VALID,0,VALID,95.6281,VALID,0,VALID,20.8925,VALID,118,VALID,0.623438,
2010-05-08, 03:35:04,VALID,912.451,VALID,0,VALID,95.773,VALID,0,VALID,20.8925,VALID,119,VALID,0.707031,
2010-05-08, 03:36:04,VALID,912.462,VALID,0,VALID,95.834,VALID,0,VALID,20.8925,VALID,119,VALID,0.678516,
2010-05-08, 03:37:04,VALID,912.461,VALID,0,VALID,95.9026,VALID,0,VALID,20.8925,VALID,119,VALID,0.561719,
2010-05-08, 03:38:04,VALID,912.469,VALID,0,VALID,95.9331,VALID,0,VALID,20.873,VALID,118,VALID,0.334375,
2010-05-08, 03:39:04,VALID,912.439,VALID,0,VALID,96.0245,VALID,0,VALID,20.8714,VALID,119,VALID,0.270312,
2010-05-08, 03:40:04,VALID,912.488,VALID,0,VALID,96.0474,VALID,0,VALID,20.873,VALID,118,VALID,0.220703,
2010-05-08, 03:41:04,VALID,912.478,VALID,0,VALID,96.055,VALID,0,VALID,20.8519,VALID,119,VALID,0.183984,
2010-05-08, 03:42:04,VALID,912.443,VALID,0,VALID,96.0855,VALID,0,VALID,20.8535,VALID,119,VALID,0,
2010-05-08, 03:43:04,VALID,912.447,VALID,0,VALID,96.0779,VALID,0,VALID,20.834,VALID,118,VALID,0,
2010-05-08, 03:44:04,VALID,912.422,VALID,0,VALID,96.0932,VALID,0,VALID,20.8129,VALID,119,VALID,0.112891,
2010-05-08, 03:45:04,VALID,912.453,VALID,0,VALID,96.1389,VALID,0,VALID,20.8145,VALID,118,VALID,0.435547,